OBJECT XY, 66912

Orbit data source: Space-Track

You're viewing an Uncataloged Satellite

Recently launched and/or uncataloged satellites may have evolving metadata. Metadata may include but not limited to: Owner, Maufacturer, Bus, Motor, and Mission.

OBJECT XY, 66912 is an American satellite in LEO that was delivered to and deployed from the ISS. Unknown objects in Earth's orbit typically refer to objects detected orbiting the Earth but have not yet been identified or cataloged. These objects could be anything from previously untracked satellites, spent rocket stages, debris from satellite collisions, or even natural meteoroids temporarily captured by Earth's gravity.

Loading next visibility...
Identifier
66912, 1998-067XY
Orbit
LEO
Country
Flag of USUS
Related business
None
Manufacturer
Unknown
Mission
Operational Amateur Technology
Bus & Motor
Unknown
Mass
Unknown
Launch date (UTC)
1998-11-20 (27 years ago)
Launch vehicle
FALCON 9
Launch site
Tyuratam Missile And Space Complex (TTMTR)
Object type
Unknown
Shape & HBR
Box, 1.1 m
Radar Cross Section
0.035 m²

Expand to show TLE details & history
Last TLE update: 21 hours ago

TLE from 21 hours ago
0 OBJECT XY
1 66912U 98067XY  26034.96482243  .00071942  00000-0  94008-3 0  9994
2 66912  51.6270 236.9592 0001825 145.1291 214.9821 15.57987640  9886
Epoch: 2026-02-03T23:09Z
TLE epoch observation values (Epoch: 2026-02-03T23:09:20.657Z)
Latitude
-0.00004°
Longitude
115.4849°
Altitude
395.237 km
Speed
7.674 km/s
True Right ascension
15h 47m 50s
True Declination
0° 00' 00"
Sunlit
Object was in daylight at epoch
Visualization orbit readout
Latitude
Unknown
Longitude
Unknown
Altitude
Unknown
Speed
Unknown
Apparent Right ascension
Unknown
Apparent Declination
Unknown
Sunlit
N/A
Visualization observer readout
Local Sidereal Time
22:31:00
Azimuth
Unknown
Elevation
Unknown
Doppler factor
Unknown
Orbital elements
Apogee altitude
395.23 km
Perigee altitude
392.758 km
Semi-major axis
6,772.131 km
Eccentricity
0.00018
Inclination
51.627°
RAAN
236.9592°
Arg. of periapsis
145.1291°
True anomaly
214.97011°
Mean anomaly
214.9821°
Eccentric anomaly
214.97611°
Mean motion
3.89453 °/min
Orbital period
92.44 mins
BSTAR
0.00094008
Loading maneuver chart data...
Computing Atmospheric mass density...

Documentation

Showing up to 5 results
|